TimeMST,TemperatureF,Dew PointF,Humidity,Sea Level PressureIn,VisibilityMPH,Wind Direction,Wind SpeedMPH,Gust SpeedMPH,PrecipitationIn,Events,Conditions,WindDirDegrees,DateUTC
12:53 AM,15.1,5.0,64,30.04,10.0,Calm,Calm,-,N/A,,Clear,0,2013-02-19 07:53:00
1:53 AM,17.1,6.1,62,30.01,10.0,Calm,Calm,-,N/A,,Clear,0,2013-02-19 08:53:00
2:53 AM,14.0,6.1,71,30.01,10.0,Calm,Calm,-,N/A,,Clear,0,2013-02-19 09:53:00
3:53 AM,17.1,6.1,62,29.99,10.0,Calm,Calm,-,N/A,,Clear,0,2013-02-19 10:53:00
4:53 AM,15.1,7.0,70,29.99,10.0,Calm,Calm,-,N/A,,Clear,0,2013-02-19 11:53:00
5:53 AM,16.0,7.0,68,29.99,10.0,Calm,Calm,-,N/A,,Clear,0,2013-02-19 12:53:00
6:53 AM,12.9,6.1,74,30.00,10.0,SE,4.6,-,N/A,,Clear,130,2013-02-19 13:53:00
7:53 AM,14.0,7.0,74,30.00,10.0,Calm,Calm,-,N/A,,Clear,0,2013-02-19 14:53:00
8:53 AM,16.0,7.0,68,30.00,10.0,West,5.8,-,N/A,,Clear,260,2013-02-19 15:53:00
9:53 AM,18.0,9.0,68,29.97,10.0,Calm,Calm,-,N/A,,Clear,0,2013-02-19 16:53:00
10:53 AM,19.9,12.0,71,29.96,10.0,SSE,3.5,-,N/A,,Clear,150,2013-02-19 17:53:00
11:53 AM,25.0,12.0,58,29.91,10.0,NNW,3.5,-,N/A,,Clear,330,2013-02-19 18:53:00
12:53 PM,27.0,12.0,53,29.87,10.0,Calm,Calm,-,N/A,,Clear,0,2013-02-19 19:53:00
1:53 PM,28.9,12.0,49,29.82,10.0,Calm,Calm,-,N/A,,Clear,0,2013-02-19 20:53:00
2:53 PM,28.0,12.0,51,29.82,10.0,West,4.6,-,N/A,,Clear,280,2013-02-19 21:53:00
3:53 PM,30.0,10.9,45,29.79,10.0,NW,4.6,-,N/A,,Clear,310,2013-02-19 22:53:00
5:53 PM,25.0,12.9,60,29.80,10.0,WSW,9.2,-,N/A,,Clear,250,2013-02-20 00:53:00
6:53 PM,25.0,12.0,58,29.82,10.0,WSW,9.2,-,N/A,,Clear,250,2013-02-20 01:53:00
7:53 PM,24.1,12.9,62,29.83,10.0,Calm,Calm,-,N/A,,Clear,0,2013-02-20 02:53:00
8:53 PM,23.0,12.0,63,29.81,10.0,Calm,Calm,-,N/A,,Clear,0,2013-02-20 03:53:00
9:53 PM,21.0,10.9,65,29.81,10.0,WSW,5.8,-,N/A,,Clear,250,2013-02-20 04:53:00
10:53 PM,18.0,10.9,74,29.81,10.0,SSE,4.6,-,N/A,,Clear,160,2013-02-20 05:53:00
11:53 PM,10.9,6.1,81,29.81,10.0,ESE,4.6,-,N/A,,Clear,110,2013-02-20 06:53:00